Regional Weather Roundup
Issued by NWS Charleston, SC

Current Version | Previous Version | Graphics & Text | Print | Product List | Glossary On
Versions: 1 2 3 4 5 6 7 8 9 10 11 12 13 14 15 16 17 18 19 20 21 22 23 24 25 26 27 28 29 30 31 32 33 34 35 36 37 38 39 40 41 42 43 44 45 46 47 48 49 50
000
ASUS42 KCHS 221727
RWRCHS

REGIONAL WEATHER ROUNDUP
NATIONAL WEATHER SERVICE CHARLESTON SC
100 PM EDT WED MAR 22 2017

NOTE: "FAIR" INDICATES FEW OR NO CLOUDS BELOW 12,000 FEET WITH NO
SIGNIFICANT WEATHER AND/OR OBSTRUCTIONS TO VISIBILITY.

NOT ALL STATIONS ARE QUALITY CONTROLLED. USE DATA WITH CAUTION...
ESPECIALLY DEWPOINT OBSERVATIONS.

SCZ027-030-031-034>040-042>050-221800-
...SOUTHEAST SOUTH CAROLINA...

CITY           SKY/WX    TMP DP  RH WIND       PRES   REMARKS
N CHARLESTON   MOSUNNY   73  44  35 NE12G21   30.07R
WATERFRONT PRK   N/A     67  55  65 N12       30.05
JOHNS ISLAND   FAIR      73  48  40 N13       30.07R
PINOPOLIS        N/A     63  50  63 N13       29.99
MONCKS CORNER  FAIR      70  39  32 N14       30.09R
SUMMERVILLE    FAIR      70  45  40 N13G20    30.09F
BEAUFORT MCAS  MOSUNNY   77  53  43 N16G22    30.07S
BEAUFORT ARPT  FAIR      73  54  49 N12       30.07R
HILTON HEAD IS MOSUNNY   70  59  68 N14       30.07R
WALTERBORO     SUNNY     72  46  40 N13G18    30.09S
ALLENDALE      FAIR      72  52  49 NE8G15    30.08S

...SOUTHERN MIDLANDS AND PEE DEE...

CITY           SKY/WX    TMP DP  RH WIND       PRES   REMARKS
GEORGETOWN     FAIR      70  45  40 N15       30.09F
KINGSTREE      FAIR      68  41  37 NW12      30.11S
ORANGEBURG     SUNNY     70  45  40 E8        30.10S
BARNWELL       FAIR      72  52  49 N9        30.10S
AIKEN          FAIR      68  46  45 NE10G16   30.14S
MANNING        FAIR      68  43  40 NE13G21   30.10S
COLUMBIA       CLOUDY    73  43  33 NE8       30.11S
SUMTER         PTSUNNY   67  42  39 N13       30.10R
FLORENCE       SUNNY     67  41  38 N17G26    30.12R
MYRTLE BEACH   MOSUNNY   68  48  49 N21       30.10R
N MYRTLE BEACH PTSUNNY   68  51  54 NE16      30.09R

$$

GAZ063-065-086>088-099>101-113>116-118-119-134>141-150-221800-
...SOUTHEAST GEORGIA...

CITY           SKY/WX    TMP DP  RH WIND       PRES   REMARKS
SAVANNAH ARPT  MOSUNNY   79  56  45 NW8       30.06S
HUNTER AAF     SUNNY     78  61  55 N9G18     30.04R
FORT STEWART   SUNNY     78  56  47 N10       30.04S
STATESBORO     MOSUNNY   75  60  60 NE6       30.08R
SYLVANIA       MOSUNNY  N/A N/A N/A NE10      30.09S
CLAXTON        FAIR      76  69  79 N6        30.08R

...CSRA...CENTRAL AND FAR SOUTHEAST GEORGIA...

CITY           SKY/WX    TMP DP  RH WIND       PRES   REMARKS
THOMSON        CLOUDY    72  59  64 MISG      30.16S
AUGUSTA-BUSH   CLOUDY    72  54  53 NE12      30.10R
AUGUSTA-DANIEL PTSUNNY   70  50  49 N8        30.11R
SWAINSBORO     CLOUDY    75  57  53 N5        30.10S
VIDALIA        SUNNY     77  55  47 N9        30.08S
EASTMAN        FAIR      80  37  21 NW6       30.11S
HAZLEHURST     FAIR      80  55  42 NW6       30.06S
ALMA           SUNNY     80  54  40 N10       30.06F
WAYCROSS       SUNNY     85  60  42 N13       30.06S
JESUP          FAIR      81  50  34 N12       30.05F
BAXLEY         FAIR      79  59  50 NW5       30.06F
BRUNSWICK      SUNNY     82  59  44 N8        30.05S
SAINT SIMONS   SUNNY     81  55  40 NW9       30.04S

$$

SCZ027-028-034-036>038-045-046-048>050-GAZ119-141-221800-
...LAKE AND SUPPLEMENTAL COASTAL OBSERVATIONS...

STATION/POSITION TIME  TEMP    WIND        PRES    WAVE   SWELL
                       AIR SEA DIR/SP/G            HT/PER HT/PER/DIR
                 (UTC) (F)     (DEG/KT/KT) (MB)    (FT/S) (FT/S/D)
WINYAH BAY       1645   67      10/ 10     1019.0R
LAKE MURRAY      1650   64      40/  4/ 12 1019.6R
ACE BASIN NERRS  1630   73      10/  5     1018.0R
FORT PULASKI     1700   69 60   50/ 12/ 15 1018.1
SAPELO ISLAND    1700   80     360/  9     1017.0

$$

ANZ835-935-AMZ111-154-330-350-352-354-370-450-454-472-221800-
...C-MAN AND BUOY OBSERVATIONS...

STATION/POSITION TIME  TEMP    WIND        PRES    WAVE   SWELL
                       AIR SEA DIR/SP/G            HT/PER HT/PER/DIR
                 (UTC) (F)     (DEG/KT/KT) (MB)    (FT/S) (FT/S/D)
BUOY 41004       1650   63 66   10/ 21/ 25 1017.3R   3/ 6   2/110/11
BUOY 41008       1650   65 63   20/  6/  6 1017.6R   2/11   2/120/11
FOLLY BEACH CMAN 1700   66      70/  8/ 10 1018.8R
CAPERS NEARSHORE 1708   64      40/ 14/ 17 1018.1R
FRIPP NEARSHORE  1708   63 60   50/  2/  4 1017.9S


STATION/POSITION TIME  TEMP    WIND        PRES    WAVE   SWELL
                       AIR SEA DIR/SP/G            HT/PER HT/PER/DIR
                 (UTC) (F)     (DEG/KT/KT) (MB)    (FT/S) (FT/S/D)
5E ST. MARYS GA  1700      64                N/A     2/11   2/ 80/11
FRYING PAN BUOY  1710   60 66   10/ 19/ 23 1018.5
BUOY 41025       1650   55 74   10/ 31/ 39 1017.4R   9/10
CAPE LOOKOUT NC  1700   57      10/ 22/ 26 1018.6R
BUOY 41002       1650   72 75  280/ 21/ 23 1014.2R   9/ 8   2/190/11
BUOY 41010       NOT AVBL
ST AUGUSTINE FL  1700   80 65  290/  5/  7 1018.3F


$$



USA.gov is the U.S. government's official web portal to all federal, state and local government web resources and services.